| time (UTC) | temp F | wind direction | speed MPH | gust MPH | rain 1hr in | rain 24hr in | rain mn in | humidity % | barometer mb |
| 20260904190901 | 80 | 28 | 1.0 | 4.0 | 0.00 | 0.01 | 0.01 | 41 | 1006.2 |
| 20260904190404 | 81 | 328 | 1.0 | 3.0 | 0.00 | 0.01 | 0.01 | 41 | 1006.1 |
| 20260904190053 | 80 | 216 | 0.0 | 6.0 | 0.00 | 0.01 | 0.01 | 40 | 1005.5 |
| 20260904185849 | 81 | 220 | 1.0 | 6.0 | 0.00 | 0.01 | 0.01 | 38 | 1006.0 |
| 20260904185349 | 82 | 317 | 2.0 | 6.0 | 0.00 | 0.01 | 0.01 | 39 | 1005.9 |
| 20260904184846 | 82 | 86 | 1.0 | 8.0 | 0.00 | 0.01 | 0.01 | 42 | 1006.1 |
| 20260904184546 | 81 | 44 | 0.0 | 8.0 | 0.00 | 0.01 | 0.01 | 41 | 1005.4 |
| 20260904184345 | 81 | 4 | 1.0 | 8.0 | 0.00 | 0.01 | 0.01 | 40 | 1006.0 |
| 20260904183843 | 81 | 246 | 1.0 | 6.0 | 0.00 | 0.01 | 0.01 | 42 | 1006.0 |
| 20260904183343 | 80 | 265 | 1.0 | 5.0 | 0.00 | 0.01 | 0.01 | 39 | 1006.2 |
| 20260904183004 | 79 | 189 | 2.0 | 5.0 | 0.00 | 0.01 | 0.01 | 39 | 1005.7 |
| 20260904182902 | 80 | 248 | 2.0 | 4.0 | 0.00 | 0.01 | 0.01 | 40 | 1006.3 |
| 20260904182342 | 80 | 260 | 0.0 | 5.0 | 0.00 | 0.01 | 0.01 | 40 | 1006.3 |
| 20260904181841 | 81 | 273 | 0.0 | 5.0 | 0.00 | 0.01 | 0.01 | 41 | 1006.4 |
| 20260904181543 | 80 | 44 | 1.0 | 4.0 | 0.00 | 0.01 | 0.01 | 40 | 1005.9 |
| 20260904181342 | 80 | 283 | 1.0 | 4.0 | 0.00 | 0.01 | 0.01 | 42 | 1006.3 |
| 20260904180840 | 80 | 271 | 0.0 | 7.0 | 0.00 | 0.01 | 0.01 | 42 | 1006.3 |
| 20260904180340 | 80 | 217 | 1.0 | 7.0 | 0.00 | 0.01 | 0.01 | 42 | 1006.3 |
| 20260904180051 | 79 | 251 | 1.0 | 7.0 | 0.00 | 0.01 | 0.01 | 40 | 1005.8 |
| 20260904175835 | 80 | 262 | 1.0 | 6.0 | 0.00 | 0.01 | 0.01 | 41 | 1006.4 |
| 20260904175354 | 81 | 72 | 2.0 | 6.0 | 0.00 | 0.01 | 0.01 | 42 | 1006.4 |
| 20260904174849 | 81 | 42 | 2.0 | 6.0 | 0.00 | 0.01 | 0.01 | 43 | 1006.3 |
| 20260904174551 | 80 | 141 | 2.0 | 6.0 | 0.00 | 0.01 | 0.01 | 43 | 1005.6 |
| 20260904174349 | 81 | 33 | 1.0 | 4.0 | 0.00 | 0.01 | 0.01 | 43 | 1006.3 |
| 20260904173846 | 80 | 350 | 0.0 | 6.0 | 0.00 | 0.01 | 0.01 | 44 | 1006.3 |
| 20260904173346 | 81 | 258 | 2.0 | 7.0 | 0.00 | 0.01 | 0.01 | 41 | 1006.3 |
| 20260904173006 | 80 | 115 | 1.0 | 7.0 | 0.00 | 0.01 | 0.01 | 40 | 1005.9 |
| 20260904172904 | 80 | 300 | 2.0 | 7.0 | 0.00 | 0.01 | 0.01 | 43 | 1006.3 |
| 20260904172344 | 80 | 242 | 1.0 | 4.0 | 0.00 | 0.01 | 0.01 | 43 | 1006.3 |
| 20260904171841 | 79 | 136 | 0.0 | 6.0 | 0.00 | 0.01 | 0.01 | 47 | 1006.3 |
| 20260904171602 | 78 | 255 | 0.0 | 6.0 | 0.00 | 0.01 | 0.01 | 46 | 1005.8 |
| 20260904171356 | 79 | 233 | 2.0 | 6.0 | 0.00 | 0.01 | 0.01 | 46 | 1006.5 |
| 20260904170848 | 79 | 354 | 1.0 | 5.0 | 0.00 | 0.01 | 0.01 | 45 | 1006.3 |
| 20260904170347 | 79 | 279 | 0.0 | 6.0 | 0.00 | 0.01 | 0.01 | 45 | 1006.5 |
| 20260904170006 | 78 | 288 | 1.0 | 6.0 | 0.00 | 0.01 | 0.01 | 43 | 1006.1 |
| 20260904165904 | 79 | 269 | 1.0 | 6.0 | 0.00 | 0.01 | 0.01 | 44 | 1006.7 |
| 20260904165343 | 80 | 258 | 1.0 | 4.0 | 0.00 | 0.01 | 0.01 | 46 | 1006.5 |
| 20260904164839 | 80 | 275 | 2.0 | 6.0 | 0.00 | 0.01 | 0.01 | 43 | 1006.7 |
| 20260904164540 | 80 | 310 | 1.0 | 6.0 | 0.00 | 0.01 | 0.01 | 40 | 1006.1 |
| 20260904164339 | 81 | 347 | 2.0 | 8.0 | 0.00 | 0.01 | 0.01 | 40 | 1006.6 |
| 20260904163834 | 80 | 72 | 1.0 | 8.0 | 0.00 | 0.01 | 0.01 | 44 | 1006.5 |
| 20260904163354 | 80 | 23 | 2.0 | 5.0 | 0.00 | 0.01 | 0.01 | 43 | 1006.6 |
| 20260904163029 | 80 | 297 | 2.0 | 6.0 | 0.00 | 0.01 | 0.01 | 44 | 1006.0 |
| 20260904162343 | 80 | 6 | 2.0 | 6.0 | 0.00 | 0.01 | 0.01 | 44 | 1006.5 |
| 20260904161837 | 80 | 113 | 2.0 | 6.0 | 0.00 | 0.01 | 0.01 | 47 | 1006.6 |
| 20260904161539 | 79 | 176 | 2.0 | 6.0 | 0.00 | 0.01 | 0.01 | 45 | 1006.1 |
| 20260904161337 | 80 | 46 | 1.0 | 6.0 | 0.00 | 0.01 | 0.01 | 45 | 1006.6 |
| 20260904160915 | 80 | 26 | 2.0 | 6.0 | 0.00 | 0.01 | 0.01 | 46 | 1006.8 |
| 20260904160413 | 79 | 78 | 2.0 | 5.0 | 0.00 | 0.01 | 0.01 | 47 | 1006.9 |
| 20260904160054 | 79 | 248 | 1.0 | 5.0 | 0.00 | 0.01 | 0.01 | 47 | 1006.4 |
| 20260904155851 | 79 | 311 | 2.0 | 5.0 | 0.00 | 0.01 | 0.01 | 48 | 1007.0 |
| 20260904155348 | 79 | 62 | 2.0 | 6.0 | 0.00 | 0.01 | 0.01 | 47 | 1007.1 |
| 20260904154845 | 79 | 37 | 2.0 | 6.0 | 0.00 | 0.01 | 0.01 | 48 | 1007.1 |
| 20260904154547 | 78 | 319 | 1.0 | 6.0 | 0.00 | 0.01 | 0.01 | 45 | 1006.7 |
| 20260904154347 | 78 | 255 | 1.0 | 4.0 | 0.00 | 0.01 | 0.01 | 47 | 1007.2 |
| 20260904153843 | 78 | 273 | 2.0 | 7.0 | 0.00 | 0.01 | 0.01 | 45 | 1007.1 |
| 20260904153343 | 78 | 316 | 2.0 | 7.0 | 0.00 | 0.01 | 0.01 | 45 | 1007.1 |
| 20260904153037 | 77 | 258 | 1.0 | 6.0 | 0.00 | 0.01 | 0.01 | 47 | 1006.7 |
| 20260904152836 | 78 | 154 | 3.0 | 6.0 | 0.00 | 0.01 | 0.01 | 46 | 1007.0 |
| 20260904152337 | 77 | 265 | 2.0 | 9.0 | 0.00 | 0.01 | 0.01 | 46 | 1007.1 |
| 20260904151852 | 77 | 296 | 3.0 | 9.0 | 0.00 | 0.01 | 0.01 | 46 | 1007.1 |
| 20260904151551 | 76 | 302 | 3.0 | 9.0 | 0.00 | 0.01 | 0.01 | 46 | 1006.6 |
| 20260904151350 | 77 | 193 | 3.0 | 7.0 | 0.00 | 0.01 | 0.01 | 46 | 1007.1 |
| 20260904150907 | 77 | 290 | 2.0 | 7.0 | 0.00 | 0.01 | 0.01 | 49 | 1007.1 |
| 20260904150347 | 77 | 83 | 1.0 | 4.0 | 0.00 | 0.01 | 0.01 | 51 | 1007.1 |
| 20260904150047 | 76 | 225 | 1.0 | 7.0 | 0.00 | 0.01 | 0.01 | 48 | 1006.7 |
| 20260904145845 | 76 | 213 | 2.0 | 7.0 | 0.00 | 0.01 | 0.01 | 49 | 1007.2 |
| 20260904145404 | 76 | 240 | 2.0 | 4.0 | 0.00 | 0.01 | 0.01 | 50 | 1007.2 |
| 20260904144841 | 75 | 293 | 1.0 | 4.0 | 0.00 | 0.01 | 0.01 | 51 | 1007.1 |
| 20260904144544 | 74 | 314 | 0.0 | 4.0 | 0.00 | 0.01 | 0.01 | 52 | 1006.8 |
| 20260904144342 | 74 | 229 | 0.0 | 2.0 | 0.00 | 0.01 | 0.01 | 53 | 1007.3 |
| 20260904143835 | 74 | 210 | 0.0 | 5.0 | 0.00 | 0.01 | 0.01 | 53 | 1007.2 |
| 20260904143337 | 73 | 40 | 1.0 | 5.0 | 0.00 | 0.01 | 0.01 | 53 | 1007.3 |
| 20260904143055 | 73 | 144 | 0.0 | 4.0 | 0.00 | 0.01 | 0.01 | 54 | 1007.0 |
| 20260904142853 | 73 | 264 | 0.0 | 4.0 | 0.00 | 0.01 | 0.01 | 55 | 1007.3 |
| 20260904142335 | 72 | 238 | 2.0 | 4.0 | 0.00 | 0.01 | 0.01 | 54 | 1007.5 |
| 20260904141853 | 72 | 65 | 1.0 | 3.0 | 0.00 | 0.01 | 0.01 | 55 | 1007.6 |
| 20260904141556 | 71 | 229 | 0.0 | 4.0 | 0.00 | 0.01 | 0.01 | 56 | 1007.0 |
| 20260904141353 | 72 | 329 | 0.0 | 5.0 | 0.00 | 0.01 | 0.01 | 56 | 1007.5 |
| 20260904140849 | 71 | 58 | 1.0 | 5.0 | 0.00 | 0.01 | 0.01 | 56 | 1007.5 |
| 20260904140349 | 70 | 265 | 1.0 | 3.0 | 0.00 | 0.01 | 0.01 | 63 | 1007.6 |
| 20260904140059 | 69 | 222 | 0.0 | 2.0 | 0.00 | 0.01 | 0.01 | 65 | 1007.0 |
| 20260904135842 | 69 | 52 | 0.0 | 2.0 | 0.00 | 0.01 | 0.01 | 66 | 1007.5 |
| 20260904135404 | 68 | 68 | 0.0 | 1.0 | 0.00 | 0.01 | 0.01 | 66 | 1007.5 |
| 20260904134841 | 68 | 10 | 0.0 | 1.0 | 0.00 | 0.01 | 0.01 | 66 | 1007.6 |
| 20260904134543 | 68 | 274 | 0.0 | 1.0 | 0.00 | 0.01 | 0.01 | 66 | 1007.1 |
| 20260904134339 | 68 | 274 | 0.0 | 1.0 | 0.00 | 0.01 | 0.01 | 66 | 1007.5 |
| 20260904133836 | 68 | 68 | 0.0 | 0.0 | 0.00 | 0.01 | 0.01 | 66 | 1007.6 |
| 20260904133336 | 67 | 68 | 0.0 | 0.0 | 0.00 | 0.01 | 0.01 | 66 | 1007.6 |
| 20260904133055 | 67 | 235 | 0.0 | 0.0 | 0.00 | 0.01 | 0.01 | 66 | 1007.0 |
| 20260904132850 | 67 | 235 | 0.0 | 0.0 | 0.00 | 0.01 | 0.01 | 66 | 1007.5 |
| 20260904132349 | 67 | 235 | 0.0 | 0.0 | 0.00 | 0.01 | 0.01 | 66 | 1007.6 |
| 20260904131907 | 67 | 235 | 0.0 | 0.0 | 0.00 | 0.01 | 0.01 | 66 | 1007.5 |
| 20260904131548 | 66 | 267 | 0.0 | 0.0 | 0.00 | 0.01 | 0.01 | 66 | 1007.2 |
| 20260904131346 | 66 | 267 | 0.0 | 0.0 | 0.00 | 0.01 | 0.01 | 66 | 1007.7 |
| 20260904130844 | 66 | 267 | 0.0 | 0.0 | 0.00 | 0.01 | 0.01 | 66 | 1007.7 |
| 20260904130055 | 65 | 267 | 0.0 | 0.0 | 0.00 | 0.01 | 0.01 | 66 | 1007.1 |
| 20260904125851 | 65 | 267 | 0.0 | 0.0 | 0.00 | 0.01 | 0.01 | 66 | 1007.6 |
| 20260904125340 | 65 | 267 | 0.0 | 0.0 | 0.00 | 0.01 | 0.01 | 66 | 1007.6 |
| 20260904124851 | 65 | 267 | 0.0 | 0.0 | 0.00 | 0.01 | 0.01 | 66 | 1007.6 |
| 20260904124513 | 64 | 267 | 0.0 | 0.0 | 0.00 | 0.01 | 0.01 | 66 | 1007.1 |
| 20260904124411 | 65 | 267 | 0.0 | 0.0 | 0.00 | 0.01 | 0.01 | 66 | 1007.6 |
| 20260904123849 | 64 | 267 | 0.0 | 0.0 | 0.00 | 0.01 | 0.01 | 66 | 1007.4 |
| 20260904123350 | 64 | 267 | 0.0 | 0.0 | 0.00 | 0.01 | 0.01 | 66 | 1007.5 |
| 20260904123050 | 63 | 267 | 0.0 | 0.0 | 0.00 | 0.01 | 0.01 | 66 | 1007.0 |
| 20260904122849 | 64 | 267 | 0.0 | 0.0 | 0.00 | 0.01 | 0.01 | 66 | 1007.6 |
| 20260904122348 | 63 | 267 | 0.0 | 0.0 | 0.00 | 0.01 | 0.01 | 66 | 1007.5 |
| 20260904121846 | 63 | 267 | 0.0 | 0.0 | 0.00 | 0.01 | 0.01 | 66 | 1007.5 |
| 20260904121546 | 62 | 267 | 0.0 | 0.0 | 0.00 | 0.01 | 0.01 | 66 | 1007.1 |
| 20260904121345 | 62 | 267 | 0.0 | 0.0 | 0.00 | 0.01 | 0.01 | 66 | 1007.6 |
| 20260904120904 | 62 | 267 | 0.0 | 0.0 | 0.00 | 0.01 | 0.01 | 66 | 1007.4 |
| 20260904120337 | 62 | 267 | 0.0 | 0.0 | 0.00 | 0.01 | 0.01 | 66 | 1007.4 |
| 20260904120056 | 61 | 267 | 0.0 | 0.0 | 0.00 | 0.01 | 0.01 | 66 | 1006.9 |
| 20260904115850 | 61 | 267 | 0.0 | 0.0 | 0.00 | 0.01 | 0.01 | 66 | 1007.4 |
| 20260904115349 | 61 | 267 | 0.0 | 0.0 | 0.00 | 0.01 | 0.01 | 66 | 1007.4 |
| 20260904114504 | 60 | 267 | 0.0 | 0.0 | 0.00 | 0.01 | 0.01 | 66 | 1007.1 |
| 20260904114404 | 61 | 267 | 0.0 | 0.0 | 0.00 | 0.01 | 0.01 | 66 | 1007.6 |
| 20260904113837 | 61 | 267 | 0.0 | 0.0 | 0.00 | 0.01 | 0.01 | 66 | 1007.7 |
| 20260904113337 | 61 | 267 | 0.0 | 0.0 | 0.00 | 0.01 | 0.01 | 66 | 1007.6 |
| 20260904113055 | 60 | 267 | 0.0 | 0.0 | 0.00 | 0.01 | 0.01 | 66 | 1007.1 |
| 20260904112854 | 60 | 267 | 0.0 | 0.0 | 0.00 | 0.01 | 0.01 | 66 | 1007.6 |
| 20260904112353 | 60 | 267 | 0.0 | 0.0 | 0.00 | 0.01 | 0.01 | 66 | 1007.5 |
| 20260904111850 | 60 | 267 | 0.0 | 0.0 | 0.00 | 0.01 | 0.01 | 66 | 1007.4 |
| 20260904111550 | 60 | 267 | 0.0 | 0.0 | 0.00 | 0.01 | 0.01 | 66 | 1006.9 |
| 20260904111346 | 60 | 267 | 0.0 | 0.0 | 0.00 | 0.01 | 0.01 | 66 | 1007.4 |
| 20260904110844 | 60 | 267 | 0.0 | 0.0 | 0.00 | 0.01 | 0.01 | 66 | 1007.5 |
| 20260904110404 | 60 | 267 | 0.0 | 0.0 | 0.00 | 0.01 | 0.01 | 66 | 1007.3 |
| 20260904110003 | 60 | 267 | 0.0 | 0.0 | 0.00 | 0.01 | 0.01 | 66 | 1006.9 |
| 20260904105901 | 60 | 267 | 0.0 | 0.0 | 0.00 | 0.01 | 0.01 | 66 | 1007.3 |
| 20260904105340 | 60 | 267 | 0.0 | 0.0 | 0.00 | 0.01 | 0.01 | 66 | 1007.4 |
| 20260904104839 | 60 | 267 | 0.0 | 0.0 | 0.00 | 0.01 | 0.01 | 66 | 1007.4 |
| 20260904104519 | 59 | 267 | 0.0 | 0.0 | 0.00 | 0.01 | 0.01 | 66 | 1006.8 |
| 20260904104416 | 60 | 267 | 0.0 | 0.0 | 0.00 | 0.01 | 0.01 | 66 | 1007.3 |
| 20260904103847 | 60 | 267 | 0.0 | 0.0 | 0.00 | 0.01 | 0.01 | 66 | 1007.3 |
| 20260904103346 | 60 | 267 | 0.0 | 0.0 | 0.00 | 0.01 | 0.01 | 66 | 1007.2 |
| 20260904103003 | 60 | 267 | 0.0 | 0.0 | 0.00 | 0.01 | 0.01 | 66 | 1006.9 |
| 20260904102902 | 60 | 267 | 0.0 | 0.0 | 0.00 | 0.01 | 0.01 | 66 | 1007.2 |
| 20260904102341 | 60 | 267 | 0.0 | 0.0 | 0.00 | 0.01 | 0.01 | 66 | 1007.2 |
| 20260904101838 | 60 | 267 | 0.0 | 0.0 | 0.00 | 0.01 | 0.01 | 66 | 1007.2 |
| 20260904101537 | 60 | 267 | 0.0 | 0.0 | 0.00 | 0.01 | 0.01 | 66 | 1006.8 |
| 20260904101337 | 60 | 267 | 0.0 | 0.0 | 0.00 | 0.01 | 0.01 | 66 | 1007.2 |
| 20260904100914 | 61 | 267 | 0.0 | 0.0 | 0.00 | 0.01 | 0.01 | 66 | 1007.1 |
| 20260904100350 | 61 | 267 | 0.0 | 0.0 | 0.00 | 0.01 | 0.01 | 66 | 1006.9 |
| 20260904100057 | 60 | 267 | 0.0 | 0.0 | 0.00 | 0.01 | 0.01 | 66 | 1006.6 |
| 20260904095847 | 61 | 267 | 0.0 | 0.0 | 0.00 | 0.03 | 0.01 | 66 | 1007.1 |
| 20260904095347 | 61 | 267 | 0.0 | 0.0 | 0.00 | 0.03 | 0.01 | 66 | 1007.1 |
| 20260904094840 | 61 | 267 | 0.0 | 0.0 | 0.00 | 0.03 | 0.01 | 66 | 1007.0 |
| 20260904094502 | 61 | 267 | 0.0 | 0.0 | 0.00 | 0.03 | 0.01 | 66 | 1006.5 |
| 20260904094359 | 61 | 267 | 0.0 | 0.0 | 0.00 | 0.03 | 0.01 | 66 | 1007.0 |
| 20260904093836 | 61 | 267 | 0.0 | 0.0 | 0.01 | 0.03 | 0.01 | 66 | 1007.1 |
| 20260904093336 | 62 | 267 | 0.0 | 0.0 | 0.01 | 0.03 | 0.01 | 66 | 1007.1 |
| 20260904093056 | 61 | 267 | 0.0 | 0.0 | 0.01 | 0.03 | 0.01 | 66 | 1006.6 |
| 20260904092853 | 62 | 267 | 0.0 | 0.0 | 0.01 | 0.03 | 0.01 | 66 | 1007.1 |
| 20260904092354 | 62 | 267 | 0.0 | 0.0 | 0.01 | 0.03 | 0.01 | 66 | 1007.1 |
| 20260904091851 | 62 | 267 | 0.0 | 0.0 | 0.01 | 0.03 | 0.01 | 66 | 1007.0 |
| 20260904091552 | 61 | 267 | 0.0 | 0.0 | 0.01 | 0.03 | 0.01 | 66 | 1006.5 |
| 20260904091351 | 62 | 267 | 0.0 | 0.0 | 0.01 | 0.03 | 0.01 | 65 | 1007.0 |
| 20260904090849 | 62 | 267 | 0.0 | 0.0 | 0.01 | 0.03 | 0.01 | 65 | 1007.1 |
| 20260904090348 | 62 | 267 | 0.0 | 0.0 | 0.01 | 0.03 | 0.01 | 66 | 1007.1 |
| 20260904090047 | 62 | 267 | 0.0 | 0.0 | 0.01 | 0.03 | 0.01 | 65 | 1006.6 |
| 20260904085845 | 62 | 267 | 0.0 | 0.0 | 0.01 | 0.03 | 0.01 | 65 | 1007.1 |
| 20260904085342 | 62 | 267 | 0.0 | 0.0 | 0.01 | 0.03 | 0.01 | 66 | 1006.9 |
| 20260904084838 | 63 | 267 | 0.0 | 0.0 | 0.01 | 0.03 | 0.01 | 65 | 1007.0 |
| 20260904084539 | 62 | 267 | 0.0 | 0.0 | 0.01 | 0.03 | 0.01 | 65 | 1006.6 |
| 20260904084337 | 63 | 267 | 0.0 | 0.0 | 0.01 | 0.03 | 0.01 | 65 | 1006.9 |
| 20260904083835 | 63 | 267 | 0.0 | 0.0 | 0.00 | 0.02 | 0.00 | 65 | 1007.0 |
| 20260904083335 | 63 | 267 | 0.0 | 0.0 | 0.00 | 0.02 | 0.00 | 65 | 1007.1 |
| 20260904083054 | 62 | 267 | 0.0 | 0.0 | 0.00 | 0.02 | 0.00 | 65 | 1006.6 |
| 20260904082853 | 63 | 267 | 0.0 | 0.0 | 0.00 | 0.02 | 0.00 | 65 | 1006.9 |
| 20260904082353 | 63 | 267 | 0.0 | 0.0 | 0.00 | 0.02 | 0.00 | 65 | 1007.0 |
| 20260904081848 | 63 | 267 | 0.0 | 0.0 | 0.00 | 0.02 | 0.00 | 65 | 1007.1 |
| 20260904081549 | 63 | 267 | 0.0 | 0.0 | 0.00 | 0.02 | 0.00 | 65 | 1006.6 |
| 20260904081347 | 63 | 267 | 0.0 | 0.0 | 0.00 | 0.02 | 0.00 | 65 | 1007.2 |
| 20260904080843 | 63 | 267 | 0.0 | 0.0 | 0.00 | 0.02 | 0.00 | 65 | 1007.3 |
| 20260904080404 | 64 | 267 | 0.0 | 0.0 | 0.00 | 0.02 | 0.00 | 65 | 1007.3 |
| 20260904080056 | 63 | 267 | 0.0 | 0.0 | 0.00 | 0.02 | 0.00 | 65 | 1006.9 |
| 20260904075855 | 64 | 267 | 0.0 | 0.0 | 0.00 | 0.02 | 0.00 | 65 | 1007.4 |
| 20260904075336 | 64 | 267 | 0.0 | 0.0 | 0.00 | 0.02 | 0.00 | 65 | 1007.4 |
| 20260904074852 | 64 | 267 | 0.0 | 0.0 | 0.00 | 0.02 | 0.00 | 65 | 1007.3 |
| 20260904074606 | 63 | 267 | 0.0 | 0.0 | 0.00 | 0.02 | 0.00 | 65 | 1006.9 |
| 20260904074352 | 64 | 267 | 0.0 | 0.0 | 0.00 | 0.02 | 0.00 | 65 | 1007.4 |
| 20260904073849 | 64 | 267 | 0.0 | 0.0 | 0.00 | 0.02 | 0.00 | 65 | 1007.3 |
| 20260904073348 | 64 | 267 | 0.0 | 0.0 | 0.00 | 0.02 | 0.00 | 65 | 1007.3 |
| 20260904073045 | 64 | 267 | 0.0 | 0.0 | 0.00 | 0.02 | 0.00 | 65 | 1006.7 |
| 20260904072845 | 64 | 267 | 0.0 | 0.0 | 0.00 | 0.02 | 0.00 | 65 | 1007.2 |
| 20260904072345 | 64 | 267 | 0.0 | 0.0 | 0.00 | 0.02 | 0.00 | 65 | 1007.4 |
| 20260904071843 | 64 | 267 | 0.0 | 0.0 | 0.00 | 0.02 | 0.00 | 65 | 1007.5 |
| 20260904071544 | 64 | 267 | 0.0 | 0.0 | 0.00 | 0.02 | 0.00 | 65 | 1007.0 |
| 20260904071344 | 65 | 267 | 0.0 | 0.0 | 0.00 | 0.02 | 0.00 | 65 | 1007.6 |
| 20260904070842 | 65 | 267 | 0.0 | 0.0 | 0.00 | 0.02 | 0.00 | 65 | 1007.5 |
| 20260904070338 | 65 | 267 | 0.0 | 0.0 | 0.00 | 0.02 | 0.00 | 65 | 1007.6 |
| 20260904070017 | 64 | 267 | 0.0 | 0.0 | 0.00 | 0.02 | 0.00 | 65 | 1007.1 |
| 20260904065915 | 65 | 267 | 0.0 | 0.0 | 0.00 | 0.02 | 0.00 | 65 | 1007.6 |
| 20260904065354 | 65 | 267 | 0.0 | 0.0 | 0.00 | 0.02 | 0.00 | 65 | 1007.5 |
| 20260904064852 | 65 | 267 | 0.0 | 0.0 | 0.00 | 0.02 | 0.00 | 65 | 1007.5 |
| 20260904064550 | 64 | 267 | 0.0 | 0.0 | 0.00 | 0.02 | 0.00 | 65 | 1007.1 |
| 20260904064348 | 65 | 267 | 0.0 | 0.0 | 0.00 | 0.02 | 0.00 | 65 | 1007.6 |
| 20260904063844 | 65 | 267 | 0.0 | 0.0 | 0.00 | 0.02 | 0.00 | 65 | 1007.5 |
| 20260904063345 | 65 | 267 | 0.0 | 0.0 | 0.00 | 0.02 | 0.00 | 65 | 1007.6 |
| 20260904063048 | 64 | 267 | 0.0 | 0.0 | 0.00 | 0.02 | 0.00 | 65 | 1007.2 |
| 20260904062842 | 65 | 267 | 0.0 | 0.0 | 0.00 | 0.02 | 0.00 | 65 | 1007.6 |
| 20260904062342 | 65 | 267 | 0.0 | 0.0 | 0.00 | 0.02 | 0.00 | 65 | 1007.6 |
| 20260904061840 | 65 | 267 | 0.0 | 0.0 | 0.00 | 0.02 | 0.00 | 65 | 1007.6 |
| 20260904061545 | 65 | 267 | 0.0 | 0.0 | 0.00 | 0.02 | 0.00 | 65 | 1007.1 |
| 20260904061340 | 65 | 267 | 0.0 | 0.0 | 0.00 | 0.02 | 0.00 | 65 | 1007.6 |
| 20260904060854 | 66 | 267 | 0.0 | 0.0 | 0.00 | 0.02 | 0.00 | 65 | 1007.7 |
| 20260904060353 | 66 | 267 | 0.0 | 0.0 | 0.00 | 0.02 | 0.00 | 65 | 1007.8 |
| 20260904060011 | 65 | 267 | 0.0 | 0.0 | 0.00 | 0.02 | 0.00 | 65 | 1007.5 |
| 20260904055908 | 66 | 267 | 0.0 | 0.0 | 0.00 | 0.02 | 0.00 | 65 | 1008.0 |
| 20260904055346 | 66 | 267 | 0.0 | 0.0 | 0.00 | 0.02 | 0.00 | 65 | 1008.2 |
| 20260904054843 | 66 | 267 | 0.0 | 0.0 | 0.00 | 0.02 | 0.00 | 65 | 1008.2 |
| 20260904054545 | 66 | 267 | 0.0 | 0.0 | 0.00 | 0.02 | 0.00 | 65 | 1007.8 |
| 20260904054344 | 66 | 267 | 0.0 | 0.0 | 0.00 | 0.02 | 0.00 | 65 | 1008.3 |
| 20260904053841 | 66 | 267 | 0.0 | 0.0 | 0.00 | 0.02 | 0.00 | 65 | 1008.3 |
| 20260904053340 | 66 | 267 | 0.0 | 0.0 | 0.00 | 0.02 | 0.00 | 65 | 1008.3 |
| 20260904053036 | 66 | 267 | 0.0 | 0.0 | 0.00 | 0.02 | 0.00 | 65 | 1008.0 |
| 20260904052835 | 66 | 267 | 0.0 | 0.0 | 0.00 | 0.02 | 0.00 | 65 | 1008.5 |
| 20260904052335 | 66 | 267 | 0.0 | 0.0 | 0.00 | 0.02 | 0.00 | 65 | 1008.5 |
| 20260904051847 | 66 | 267 | 0.0 | 0.0 | 0.00 | 0.02 | 0.00 | 65 | 1008.4 |
| 20260904051559 | 66 | 267 | 0.0 | 0.0 | 0.00 | 0.02 | 0.00 | 65 | 1008.1 |
| 20260904051346 | 66 | 267 | 0.0 | 0.0 | 0.00 | 0.02 | 0.00 | 65 | 1008.5 |
| 20260904050903 | 66 | 267 | 0.0 | 0.0 | 0.00 | 0.02 | 0.00 | 65 | 1008.6 |
| 20260904050401 | 66 | 267 | 0.0 | 0.0 | 0.00 | 0.02 | 0.00 | 65 | 1008.6 |
| 20260904050035 | 65 | 267 | 0.0 | 0.0 | 0.00 | 0.02 | 0.00 | 65 | 1008.2 |
| 20260904045834 | 66 | 267 | 0.0 | 0.0 | 0.00 | 0.02 | 0.00 | 65 | 1008.6 |
| 20260904045333 | 66 | 267 | 0.0 | 0.0 | 0.00 | 0.02 | 0.00 | 65 | 1008.6 |
| 20260904044842 | 66 | 267 | 0.0 | 0.0 | 0.00 | 0.02 | 0.00 | 65 | 1008.5 |
| 20260904044551 | 65 | 267 | 0.0 | 0.0 | 0.00 | 0.02 | 0.00 | 65 | 1008.1 |
| 20260904044348 | 66 | 267 | 0.0 | 0.0 | 0.00 | 0.02 | 0.00 | 65 | 1008.5 |
| 20260904043842 | 66 | 267 | 0.0 | 0.0 | 0.00 | 0.02 | 0.00 | 65 | 1008.5 |
| 20260904043341 | 66 | 267 | 0.0 | 0.0 | 0.00 | 0.02 | 0.00 | 65 | 1008.7 |
| 20260904043058 | 65 | 267 | 0.0 | 0.0 | 0.00 | 0.02 | 0.00 | 65 | 1008.2 |
| 20260904042856 | 66 | 267 | 0.0 | 0.0 | 0.00 | 0.02 | 0.00 | 65 | 1008.6 |
| 20260904042334 | 65 | 267 | 0.0 | 0.0 | 0.00 | 0.02 | 0.00 | 65 | 1008.7 |
| 20260904041852 | 65 | 267 | 0.0 | 0.0 | 0.00 | 0.02 | 0.00 | 65 | 1008.6 |
| 20260904041553 | 65 | 267 | 0.0 | 0.0 | 0.00 | 0.02 | 0.00 | 65 | 1008.2 |
| 20260904041351 | 65 | 267 | 0.0 | 0.0 | 0.00 | 0.02 | 0.00 | 65 | 1008.7 |
| 20260904040849 | 65 | 267 | 0.0 | 0.0 | 0.00 | 0.02 | 0.00 | 65 | 1008.7 |
| 20260904040347 | 65 | 267 | 0.0 | 0.0 | 0.00 | 0.02 | 0.00 | 65 | 1008.8 |
| 20260904040011 | 65 | 267 | 0.0 | 0.0 | 0.00 | 0.02 | 0.02 | 65 | 1008.3 |
| 20260904035903 | 65 | 267 | 0.0 | 0.0 | 0.00 | 0.02 | 0.02 | 65 | 1008.6 |
| 20260904035339 | 66 | 267 | 0.0 | 0.0 | 0.00 | 0.02 | 0.02 | 65 | 1008.8 |
| 20260904034852 | 66 | 267 | 0.0 | 0.0 | 0.00 | 0.02 | 0.02 | 65 | 1008.7 |
| 20260904034512 | 65 | 267 | 0.0 | 0.0 | 0.00 | 0.02 | 0.02 | 65 | 1008.5 |
| 20260904034412 | 66 | 267 | 0.0 | 0.0 | 0.00 | 0.02 | 0.02 | 65 | 1008.9 |
| 20260904033910 | 66 | 267 | 0.0 | 0.0 | 0.00 | 0.02 | 0.02 | 65 | 1009.1 |
| 20260904033347 | 65 | 267 | 0.0 | 0.0 | 0.00 | 0.02 | 0.02 | 65 | 1009.0 |
| 20260904033003 | 65 | 267 | 0.0 | 0.0 | 0.00 | 0.02 | 0.02 | 65 | 1008.5 |
| 20260904032901 | 65 | 267 | 0.0 | 0.0 | 0.00 | 0.02 | 0.02 | 65 | 1008.9 |
| 20260904032341 | 65 | 267 | 0.0 | 0.0 | 0.00 | 0.02 | 0.02 | 65 | 1008.9 |
| 20260904031846 | 65 | 267 | 0.0 | 0.0 | 0.00 | 0.02 | 0.02 | 65 | 1008.8 |
| 20260904031550 | 65 | 267 | 0.0 | 0.0 | 0.00 | 0.02 | 0.02 | 65 | 1008.4 |
| 20260904031347 | 65 | 267 | 0.0 | 0.0 | 0.00 | 0.02 | 0.02 | 65 | 1008.8 |
| 20260904030844 | 65 | 267 | 0.0 | 0.0 | 0.00 | 0.02 | 0.02 | 65 | 1009.0 |
| 20260904030344 | 65 | 267 | 0.0 | 0.0 | 0.00 | 0.02 | 0.02 | 65 | 1009.0 |
| 20260904030041 | 65 | 267 | 0.0 | 0.0 | 0.00 | 0.02 | 0.02 | 65 | 1008.7 |
| 20260904025839 | 65 | 267 | 0.0 | 0.0 | 0.00 | 0.02 | 0.02 | 65 | 1009.1 |
| 20260904025340 | 66 | 267 | 0.0 | 0.0 | 0.00 | 0.02 | 0.02 | 65 | 1009.1 |
| 20260904024836 | 66 | 267 | 0.0 | 0.0 | 0.00 | 0.02 | 0.02 | 65 | 1009.0 |
| 20260904024536 | 65 | 267 | 0.0 | 0.0 | 0.00 | 0.02 | 0.02 | 65 | 1008.5 |
| 20260904024334 | 66 | 267 | 0.0 | 0.0 | 0.00 | 0.02 | 0.02 | 65 | 1008.9 |
| 20260904023904 | 66 | 267 | 0.0 | 0.0 | 0.00 | 0.02 | 0.02 | 65 | 1008.9 |
| 20260904023401 | 66 | 267 | 0.0 | 0.0 | 0.00 | 0.02 | 0.02 | 65 | 1008.9 |
| 20260904023038 | 66 | 267 | 0.0 | 0.0 | 0.00 | 0.02 | 0.02 | 65 | 1008.5 |
| 20260904022836 | 67 | 267 | 0.0 | 0.0 | 0.00 | 0.02 | 0.02 | 65 | 1009.0 |
| 20260904022355 | 67 | 267 | 0.0 | 0.0 | 0.00 | 0.02 | 0.02 | 65 | 1009.1 |
| 20260904021849 | 67 | 267 | 0.0 | 0.0 | 0.00 | 0.02 | 0.02 | 65 | 1009.2 |
| 20260904021511 | 66 | 267 | 0.0 | 0.0 | 0.00 | 0.02 | 0.02 | 65 | 1008.7 |
| 20260904021410 | 67 | 267 | 0.0 | 0.0 | 0.00 | 0.02 | 0.02 | 65 | 1009.1 |
| 20260904020408 | 67 | 267 | 0.0 | 0.0 | 0.00 | 0.02 | 0.02 | 65 | 1009.3 |
| 20260904020047 | 66 | 267 | 0.0 | 0.0 | 0.00 | 0.02 | 0.02 | 64 | 1008.9 |
| 20260904015846 | 67 | 267 | 0.0 | 0.0 | 0.00 | 0.02 | 0.02 | 64 | 1009.3 |
| 20260904015345 | 67 | 267 | 0.0 | 0.0 | 0.00 | 0.02 | 0.02 | 64 | 1009.2 |
| 20260904014607 | 67 | 267 | 0.0 | 0.0 | 0.00 | 0.02 | 0.02 | 64 | 1009.1 |
| 20260904014358 | 67 | 267 | 0.0 | 0.0 | 0.00 | 0.02 | 0.02 | 64 | 1009.5 |
| 20260904013851 | 67 | 267 | 0.0 | 0.0 | 0.00 | 0.02 | 0.02 | 64 | 1009.5 |
| 20260904013409 | 67 | 267 | 0.0 | 0.0 | 0.00 | 0.02 | 0.02 | 64 | 1009.5 |
| 20260904013006 | 66 | 267 | 0.0 | 0.0 | 0.00 | 0.02 | 0.02 | 64 | 1009.0 |
| 20260904012904 | 67 | 267 | 0.0 | 0.0 | 0.00 | 0.02 | 0.02 | 64 | 1009.4 |
| 20260904012342 | 67 | 267 | 0.0 | 0.0 | 0.00 | 0.02 | 0.02 | 64 | 1009.4 |
| 20260904011838 | 67 | 267 | 0.0 | 0.0 | 0.00 | 0.02 | 0.02 | 64 | 1009.5 |
| 20260904011537 | 67 | 267 | 0.0 | 0.0 | 0.00 | 0.02 | 0.02 | 64 | 1009.0 |
| 20260904010845 | 67 | 267 | 0.0 | 0.0 | 0.00 | 0.02 | 0.02 | 64 | 1009.6 |
| 20260904010401 | 68 | 267 | 0.0 | 0.0 | 0.00 | 0.02 | 0.02 | 64 | 1009.6 |
| 20260904010046 | 67 | 267 | 0.0 | 0.0 | 0.00 | 0.02 | 0.02 | 64 | 1009.2 |
| 20260904005837 | 68 | 267 | 0.0 | 0.0 | 0.00 | 0.02 | 0.02 | 64 | 1009.5 |
| 20260904005337 | 68 | 267 | 0.0 | 0.0 | 0.00 | 0.02 | 0.02 | 64 | 1009.4 |
| 20260904004855 | 68 | 267 | 0.0 | 0.0 | 0.00 | 0.02 | 0.02 | 64 | 1009.4 |
| 20260904004555 | 67 | 267 | 0.0 | 0.0 | 0.00 | 0.02 | 0.02 | 64 | 1008.9 |
| 20260904004354 | 67 | 267 | 0.0 | 0.0 | 0.00 | 0.02 | 0.02 | 64 | 1009.4 |
| 20260904003851 | 67 | 267 | 0.0 | 0.0 | 0.00 | 0.02 | 0.02 | 64 | 1009.1 |
| 20260904003350 | 67 | 267 | 0.0 | 0.0 | 0.00 | 0.02 | 0.02 | 63 | 1009.4 |
| 20260904003048 | 67 | 267 | 0.0 | 0.0 | 0.00 | 0.02 | 0.02 | 63 | 1008.9 |
| 20260904002846 | 68 | 267 | 0.0 | 0.0 | 0.00 | 0.02 | 0.02 | 63 | 1009.3 |
| 20260904002343 | 68 | 267 | 0.0 | 0.0 | 0.00 | 0.02 | 0.02 | 63 | 1009.3 |
| 20260904001841 | 68 | 267 | 0.0 | 0.0 | 0.00 | 0.02 | 0.02 | 63 | 1009.1 |
| 20260904001543 | 67 | 267 | 0.0 | 0.0 | 0.00 | 0.02 | 0.02 | 63 | 1008.7 |
| 20260904001340 | 68 | 267 | 0.0 | 0.0 | 0.00 | 0.02 | 0.02 | 63 | 1009.1 |
| 20260904000911 | 68 | 267 | 0.0 | 0.0 | 0.00 | 0.02 | 0.02 | 63 | 1009.0 |
| 20260904000350 | 68 | 267 | 0.0 | 0.0 | 0.00 | 0.02 | 0.02 | 63 | 1008.9 |
| 20260904000055 | 67 | 267 | 0.0 | 0.0 | 0.00 | 0.02 | 0.02 | 62 | 1008.4 |
| 20260903235847 | 68 | 267 | 0.0 | 0.0 | 0.00 | 0.02 | 0.02 | 62 | 1008.8 |
| 20260903235345 | 68 | 267 | 0.0 | 0.0 | 0.00 | 0.02 | 0.02 | 62 | 1008.9 |
| 20260903234843 | 68 | 267 | 0.0 | 0.0 | 0.00 | 0.02 | 0.02 | 61 | 1008.8 |
| 20260903234544 | 68 | 267 | 0.0 | 0.0 | 0.00 | 0.02 | 0.02 | 61 | 1008.7 |
| 20260903234342 | 68 | 267 | 0.0 | 0.0 | 0.00 | 0.02 | 0.02 | 61 | 1008.9 |
| 20260903233857 | 69 | 267 | 0.0 | 0.0 | 0.00 | 0.02 | 0.02 | 60 | 1008.8 |
| 20260903233336 | 69 | 267 | 0.0 | 0.0 | 0.00 | 0.02 | 0.02 | 60 | 1008.7 |
| 20260903233046 | 68 | 267 | 0.0 | 0.0 | 0.00 | 0.02 | 0.02 | 60 | 1008.3 |
| 20260903232844 | 69 | 267 | 0.0 | 0.0 | 0.00 | 0.02 | 0.02 | 60 | 1008.7 |
| 20260903232341 | 69 | 267 | 0.0 | 0.0 | 0.00 | 0.02 | 0.02 | 60 | 1008.7 |
| 20260903231839 | 69 | 267 | 0.0 | 0.0 | 0.00 | 0.02 | 0.02 | 60 | 1008.6 |
| 20260903231540 | 69 | 267 | 0.0 | 0.0 | 0.00 | 0.02 | 0.02 | 60 | 1008.2 |
| 20260903231339 | 70 | 267 | 0.0 | 0.0 | 0.00 | 0.02 | 0.02 | 61 | 1008.7 |
| 20260903230834 | 70 | 267 | 0.0 | 0.0 | 0.00 | 0.02 | 0.02 | 60 | 1008.8 |
| 20260903230334 | 70 | 267 | 0.0 | 0.0 | 0.00 | 0.02 | 0.02 | 60 | 1008.8 |
| 20260903230053 | 70 | 267 | 0.0 | 0.0 | 0.00 | 0.02 | 0.02 | 60 | 1008.5 |
| 20260903225852 | 71 | 267 | 0.0 | 0.0 | 0.00 | 0.02 | 0.02 | 60 | 1009.0 |
| 20260903225414 | 71 | 267 | 0.0 | 0.0 | 0.00 | 0.02 | 0.02 | 60 | 1009.0 |
| 20260903224848 | 72 | 267 | 0.0 | 0.0 | 0.00 | 0.02 | 0.02 | 60 | 1008.9 |
| 20260903224549 | 72 | 267 | 0.0 | 0.0 | 0.00 | 0.02 | 0.02 | 60 | 1008.3 |
| 20260903224347 | 72 | 267 | 0.0 | 0.0 | 0.00 | 0.02 | 0.02 | 60 | 1008.7 |
| 20260903223845 | 73 | 267 | 0.0 | 0.0 | 0.00 | 0.02 | 0.02 | 59 | 1008.8 |
| 20260903223345 | 74 | 267 | 0.0 | 0.0 | 0.00 | 0.02 | 0.02 | 58 | 1008.7 |
| 20260903223039 | 74 | 267 | 0.0 | 0.0 | 0.00 | 0.02 | 0.02 | 58 | 1008.4 |
| 20260903222837 | 75 | 267 | 0.0 | 0.0 | 0.00 | 0.02 | 0.02 | 57 | 1008.8 |
| 20260903222350 | 75 | 267 | 0.0 | 0.0 | 0.00 | 0.02 | 0.02 | 57 | 1008.8 |
| 20260903221841 | 76 | 267 | 0.0 | 0.0 | 0.00 | 0.02 | 0.02 | 56 | 1008.9 |
| 20260903221342 | 77 | 266 | 0.0 | 0.0 | 0.00 | 0.02 | 0.02 | 55 | 1009.1 |
| 20260903220859 | 78 | 267 | 0.0 | 0.0 | 0.00 | 0.02 | 0.02 | 52 | 1009.3 |
| 20260903220339 | 79 | 267 | 0.0 | 0.0 | 0.00 | 0.02 | 0.02 | 51 | 1009.1 |
| 20260903220044 | 79 | 267 | 0.0 | 0.0 | 0.00 | 0.02 | 0.02 | 51 | 1008.8 |
| 20260903215836 | 79 | 267 | 0.0 | 0.0 | 0.00 | 0.02 | 0.02 | 51 | 1009.2 |
| 20260903215334 | 79 | 267 | 0.0 | 0.0 | 0.00 | 0.02 | 0.02 | 51 | 1009.3 |
| 20260903214852 | 79 | 267 | 0.0 | 0.0 | 0.00 | 0.02 | 0.02 | 51 | 1009.2 |
| 20260903214548 | 78 | 267 | 0.0 | 1.0 | 0.00 | 0.02 | 0.02 | 51 | 1008.9 |
| 20260903214345 | 79 | 267 | 0.0 | 1.0 | 0.00 | 0.02 | 0.02 | 51 | 1009.3 |
| 20260903213840 | 79 | 266 | 0.0 | 0.0 | 0.00 | 0.02 | 0.02 | 51 | 1009.1 |
| 20260903213340 | 79 | 266 | 0.0 | 0.0 | 0.00 | 0.02 | 0.02 | 51 | 1009.2 |
| 20260903213037 | 78 | 266 | 0.0 | 0.0 | 0.00 | 0.02 | 0.02 | 51 | 1008.7 |
| 20260903212836 | 79 | 266 | 0.0 | 0.0 | 0.00 | 0.02 | 0.02 | 51 | 1009.2 |
| 20260903212335 | 78 | 266 | 0.0 | 0.0 | 0.00 | 0.02 | 0.02 | 53 | 1009.1 |
| 20260903211838 | 78 | 266 | 0.0 | 1.0 | 0.00 | 0.02 | 0.02 | 52 | 1009.2 |
| 20260903211557 | 77 | 266 | 0.0 | 1.0 | 0.00 | 0.02 | 0.02 | 52 | 1008.8 |
| 20260903211355 | 78 | 256 | 0.0 | 1.0 | 0.00 | 0.02 | 0.02 | 52 | 1009.2 |
| 20260903210913 | 78 | 255 | 0.0 | 1.0 | 0.00 | 0.02 | 0.02 | 51 | 1009.2 |
| 20260903210413 | 78 | 131 | 0.0 | 1.0 | 0.00 | 0.02 | 0.02 | 51 | 1009.2 |
| 20260903210105 | 77 | 132 | 0.0 | 1.0 | 0.00 | 0.02 | 0.02 | 53 | 1008.9 |
| 20260903205845 | 77 | 132 | 0.0 | 1.0 | 0.00 | 0.02 | 0.02 | 53 | 1009.2 |
| 20260903205344 | 77 | 130 | 1.0 | 1.0 | 0.00 | 0.02 | 0.02 | 52 | 1009.2 |
| 20260903204843 | 77 | 259 | 0.0 | 1.0 | 0.00 | 0.02 | 0.02 | 54 | 1009.3 |
| 20260903204604 | 76 | 259 | 0.0 | 1.0 | 0.00 | 0.02 | 0.02 | 55 | 1008.9 |
| 20260903204344 | 76 | 259 | 0.0 | 1.0 | 0.00 | 0.02 | 0.02 | 55 | 1009.4 |
| 20260903203840 | 76 | 259 | 0.0 | 0.0 | 0.00 | 0.02 | 0.02 | 55 | 1009.3 |
| 20260903203340 | 76 | 259 | 0.0 | 1.0 | 0.00 | 0.02 | 0.02 | 54 | 1009.3 |
| 20260903203039 | 76 | 259 | 0.0 | 1.0 | 0.00 | 0.02 | 0.02 | 53 | 1008.9 |
| 20260903202837 | 77 | 259 | 0.0 | 1.0 | 0.00 | 0.02 | 0.02 | 53 | 1009.4 |
| 20260903202339 | 76 | 259 | 0.0 | 1.0 | 0.00 | 0.02 | 0.02 | 54 | 1009.3 |
| 20260903201833 | 76 | 259 | 0.0 | 0.0 | 0.00 | 0.02 | 0.02 | 54 | 1009.3 |
| 20260903201534 | 75 | 259 | 0.0 | 0.0 | 0.00 | 0.02 | 0.02 | 55 | 1009.0 |
| 20260903201333 | 75 | 259 | 0.0 | 0.0 | 0.00 | 0.02 | 0.02 | 55 | 1009.4 |
| 20260903200912 | 74 | 256 | 0.0 | 0.0 | 0.00 | 0.02 | 0.02 | 57 | 1009.3 |
| 20260903200406 | 74 | 256 | 0.0 | 0.0 | 0.00 | 0.02 | 0.02 | 57 | 1009.3 |
| 20260903200051 | 74 | 256 | 0.0 | 0.0 | 0.00 | 0.02 | 0.02 | 56 | 1009.1 |
| 20260903195842 | 74 | 222 | 0.0 | 0.0 | 0.00 | 0.02 | 0.02 | 56 | 1009.6 |
| 20260903195341 | 74 | 222 | 0.0 | 0.0 | 0.00 | 0.02 | 0.02 | 56 | 1009.6 |
| 20260903194856 | 75 | 222 | 0.0 | 0.0 | 0.00 | 0.02 | 0.02 | 54 | 1009.6 |
| 20260903194537 | 75 | 206 | 0.0 | 0.0 | 0.00 | 0.02 | 0.02 | 55 | 1009.3 |
| 20260903194335 | 75 | 206 | 0.0 | 0.0 | 0.00 | 0.02 | 0.02 | 54 | 1009.8 |
| 20260903193852 | 75 | 206 | 0.0 | 0.0 | 0.00 | 0.02 | 0.02 | 54 | 1009.8 |
| 20260903193353 | 75 | 206 | 0.0 | 0.0 | 0.00 | 0.02 | 0.02 | 54 | 1009.8 |
| 20260903193010 | 75 | 206 | 0.0 | 0.0 | 0.00 | 0.02 | 0.02 | 53 | 1009.5 |
| 20260903192910 | 76 | 206 | 0.0 | 0.0 | 0.00 | 0.02 | 0.02 | 53 | 1010.0 |
| 20260903192348 | 75 | 252 | 0.0 | 0.0 | 0.00 | 0.02 | 0.02 | 55 | 1010.0 |
| 20260903191840 | 75 | 266 | 0.0 | 0.0 | 0.00 | 0.02 | 0.02 | 55 | 1009.9 |
| 20260903191502 | 74 | 260 | 0.0 | 0.0 | 0.00 | 0.02 | 0.02 | 53 | 1009.6 |
| 20260903191401 | 75 | 245 | 0.0 | 0.0 | 0.00 | 0.02 | 0.02 | 54 | 1010.0 |